COSMOS 2544 (759)

Last updated on Mon Sep 15 2025 00:03:19 GMT+0000 (Coordinated Universal Time)

1 44850U 19088A 25257.10367065 .00000031 00000+0 00000+0 0 9998 2 44850 65.4102 82.9549 0011571 247.2466 112.6820 2.13101906 44836
UTC large
Height (km)
Speed (km/s)
/
Latitude / Longitude
Inclination (degrees)
Orbital Period (minutes)
Azimuth
Elevation
Range (km)
Doppler Factor

Next 0 passes for location: London (51.5072 / 0.1276)

Sorry there are no passes over London.